Temperature
13 14 14 14 14 14 14 15 16 18 17 17 16 15 15 16 15 14 13 12 10 9 8 8 7 7 7 6 6 6 5 5 5 4 3 3 2 2 1 1 1 1 0 -1
14 15 15 14 14 15 15 15 16 16 17 18 17 17 16 15 15 14 13 11 10 9 8 8 7 6 6 6 5 5 5 4 4 3 3 2 1 1 1 1 0 -0 -1 -2
14 15 15 14 15 15 15 15 15 15 17 17 16 16 15 15 15 14 13 11 10 9 8 7 6 6 5 5 5 4 4 4 3 2 2 1 1 0 0 -0 -1 -1 -2 -2
13 14 12 16 17 16 16 16 16 16 17 17 15 15 15 15 14 14 12 11 10 9 8 7 6 5 5 4 4 4 3 3 2 2 1 1 0 0 -0 -1 -1 -2 -2 -3
12 13 14 16 15 16 16 15 16 16 16 14 13 12 11 13 13 12 11 10 9 8 7 6 5 4 4 4 3 3 3 2 1 1 0 0 -0 -0 -1 -1 -2 -2 -3 -4
11 12 13 14 15 15 16 15 16 16 14 11 12 10 9 10 11 10 10 9 8 7 6 5 4 4 3 3 3 2 2 1 1 0 -0 -0 -1 -1 -1 -2 -3 -3 -4 -5
11 11 13 13 14 14 14 13 14 15 13 12 11 11 9 9 9 9 9 8 7 6 5 4 4 3 3 3 2 2 1 1 0 -0 -0 -1 -1 -2 -2 -3 -4 -4 -5 -5
10 10 11 13 13 13 12 12 13 14 12 9 8 8 8 8 8 8 7 6 6 5 4 3 3 3 3 2 1 1 0 0 -0 -0 -1 -1 -2 -2 -3 -4 -4 -5 -6 -6
11 11 11 12 12 12 13 12 12 11 10 9 7 6 7 7 7 7 6 5 5 4 4 3 2 2 2 1 1 0 0 -0 -1 -1 -1 -2 -3 -3 -4 -5 -5 -6 -6 -7
12 11 11 11 11 12 12 11 11 10 10 10 8 7 7 7 6 6 5 5 4 4 3 3 2 1 1 1 0 0 -0 -1 -1 -1 -2 -2 -3 -4 -5 -6 -6 -7 -7 -8
12 10 9 10 10 11 11 10 10 9 9 9 9 7 7 6 6 5 5 4 3 3 2 2 1 1 0 0 -0 -0 -1 -1 -2 -2 -3 -3 -4 -5 -5 -6 -7 -8 -8 -8
12 11 10 9 10 10 9 9 9 9 8 8 8 7 7 6 5 5 4 3 3 2 2 1 1 0 -0 -0 -0 -1 -1 -2 -2 -3 -3 -4 -5 -5 -5 -7 -8 -8 -8 -9
12 12 11 10 9 9 9 8 9 9 8 7 7 7 6 6 5 4 3 3 2 2 1 0 -0 -0 -1 -1 -1 -1 -2 -2 -3 -4 -4 -5 -6 -6 -7 -7 -8 -9 -9 -9
11 10 8 8 8 8 8 8 8 8 7 7 7 6 6 5 4 3 3 2 1 1 0 -0 -1 -1 -1 -1 -2 -2 -3 -3 -4 -4 -5 -6 -6 -7 -8 -9 -9 -9 -9 -10
9 9 8 8 7 7 8 8 8 7 7 6 6 6 5 5 4 3 2 1 1 -0 -0 -1 -1 -1 -2 -2 -2 -3 -3 -4 -5 -5 -6 -6 -7 -8 -9 -9 -10 -10 -10 -10
8 8 7 7 6 6 7 7 7 7 6 6 6 5 4 4 3 2 1 0 -0 -1 -1 -1 -2 -2 -2 -2 -3 -3 -4 -5 -6 -6 -7 -7 -8 -9 -9 -10 -10 -10 -11 -11
7 5 5 5 6 6 6 7 7 6 6 5 5 4 3 3 2 1 0 -1 -1 -1 -2 -2 -2 -2 -3 -3 -4 -4 -5 -5 -6 -7 -7 -8 -9 -10 -10 -10 -10 -11 -11 -11
9 9 8 7 6 5 6 6 6 5 5 4 4 3 3 2 1 0 -0 -1 -2 -2 -2 -2 -3 -3 -4 -4 -5 -5 -6 -6 -7 -7 -8 -9 -10 -10 -10 -10 -11 -11 -11 -11
7 6 5 5 6 6 6 5 5 5 4 3 3 2 2 1 0 -0 -1 -2 -2 -2 -3 -3 -3 -4 -4 -5 -5 -6 -6 -7 -7 -8 -9 -10 -10 -10 -10 -11 -11 -11 -11 -12
5 5 5 5 6 6 5 5 4 4 3 3 2 2 1 0 -1 -1 -2 -2 -3 -3 -4 -4 -4 -5 -5 -6 -6 -6 -7 -8 -8 -9 -9 -10 -10 -10 -11 -11 -11 -11 -12 -12
5 5 5 5 5 4 4 4 3 3 2 2 2 1 0 -1 -1 -2 -3 -3 -4 -4 -4 -5 -5 -6 -6 -6 -7 -7 -8 -8 -9 -9 -10 -10 -10 -11 -11 -11 -11 -12 -12 -13
5 5 5 5 4 4 3 3 2 2 2 1 1 0 -1 -1 -2 -3 -3 -4 -4 -5 -5 -6 -6 -6 -7 -7 -7 -8 -8 -9 -9 -10 -10 -10 -11 -11 -11 -11 -12 -12 -13 -13
5 5 4 4 4 3 2 2 2 1 1 0 -0 -1 -2 -2 -3 -4 -4 -5 -5 -6 -6 -6 -6 -7 -7 -7 -8 -8 -9 -9 -10 -10 -10 -11 -11 -11 -12 -12 -12 -12 -12 -12
4 4 3 3 3 2 2 1 1 0 -0 -1 -1 -2 -3 -3 -4 -5 -5 -6 -6 -6 -6 -7 -7 -7 -8 -8 -9 -9 -9 -10 -10 -10 -11 -11 -11 -12 -12 -12 -12 -12 -12 -12
3 3 3 2 2 1 1 0 -0 -1 -1 -2 -3 -3 -4 -5 -5 -6 -6 -6 -6 -7 -7 -7 -8 -8 -9 -9 -9 -10 -10 -10 -10 -11 -11 -11 -12 -12 -12 -12 -12 -12 -12 -11
3 2 2 1 1 0 -0 -1 -1 -2 -3 -3 -4 -5 -5 -6 -6 -6 -6 -7 -7 -7 -8 -8 -8 -9 -9 -9 -10 -10 -10 -10 -11 -11 -11 -11 -12 -12 -12 -12 -12 -12 -11 -11
2 1 1 0 -1 -1 -1 -2 -2 -3 -4 -5 -5 -6 -6 -6 -7 -7 -7 -7 -8 -8 -8 -9 -9 -9 -10 -10 -10 -10 -10 -11 -11 -11 -11 -12 -12 -12 -12 -12 -12 -11 -11 -11
Wind_Speed
5 7 12 10 11 11 9 7 4 2 6 10 11 11 11 11 12 14 14 14 13 13 11 11 10 10 10 9 9 8 7 7 6 4 4 4 4 5 6 7 8 8 8 8
0 4 9 12 14 15 14 13 10 8 4 5 10 11 11 12 12 13 13 13 13 12 12 11 11 10 11 9 8 8 7 6 5 3 3 3 4 5 7 7 8 8 8 9
1 5 5 6 13 15 14 13 13 13 8 3 7 10 11 12 11 11 11 11 12 11 11 11 11 11 10 9 8 7 7 5 4 3 3 4 5 6 7 7 7 8 9 9
1 4 4 3 4 11 13 13 13 10 6 5 8 8 8 8 10 10 11 11 11 10 11 11 11 11 10 9 8 7 6 4 3 2 3 4 6 7 7 7 7 8 9 10
1 2 5 3 1 3 8 9 11 12 8 9 14 10 9 9 9 10 10 11 10 11 12 11 12 11 11 9 8 6 5 3 2 2 4 5 6 7 7 7 8 8 9 10
0 1 2 2 3 5 1 4 2 6 11 15 11 6 5 7 12 13 12 12 12 13 13 12 11 10 10 8 7 6 4 3 2 2 4 6 6 7 7 7 8 9 10 10
3 2 4 2 1 2 3 2 4 2 11 12 6 7 13 13 12 12 12 12 13 13 11 10 10 9 9 8 6 6 4 1 2 3 4 6 6 6 7 8 9 9 10 9
5 5 6 3 1 1 2 0 3 8 13 14 15 16 15 13 12 12 12 11 11 11 10 9 9 9 9 7 6 5 2 1 3 4 5 6 6 7 7 8 9 9 9 9
8 6 2 3 4 2 2 5 7 10 15 17 16 14 13 11 10 10 10 10 10 11 10 8 7 7 8 6 6 3 1 2 4 5 5 6 6 7 7 7 7 7 8 9
5 4 5 4 3 2 6 9 10 12 13 14 15 13 13 11 10 9 9 9 10 10 10 8 7 7 7 7 4 2 2 3 4 5 6 6 6 6 6 7 7 8 9 10
4 6 6 3 4 7 11 12 12 12 12 13 14 13 11 10 9 8 8 7 8 9 9 8 7 7 6 5 4 3 3 4 5 5 6 6 7 6 8 6 9 12 8 8
6 9 7 7 8 10 12 11 12 14 12 10 11 11 11 9 8 8 8 8 8 8 9 8 7 7 6 5 4 3 3 4 4 5 5 6 7 8 12 14 20 21 20 19
4 7 8 11 10 10 11 11 11 12 12 11 10 10 10 9 7 8 8 8 8 8 8 8 7 6 5 4 3 2 3 4 4 5 6 6 7 9 11 13 16 19 21 23
11 12 10 8 9 11 13 13 14 13 11 11 10 10 10 9 8 9 8 8 8 9 8 7 6 4 4 4 2 2 4 6 6 5 5 6 7 8 9 11 12 10 14 21
6 6 10 12 12 12 11 13 15 12 11 10 9 9 9 9 9 8 8 8 9 8 7 6 5 3 4 4 2 3 4 4 5 5 5 6 8 8 7 9 10 11 10 13
9 12 14 14 13 11 11 12 13 11 10 10 9 9 9 9 9 9 8 7 7 7 6 5 4 3 4 3 2 3 4 9 9 6 6 6 7 7 8 9 10 10 11 11
12 11 10 12 11 10 9 10 11 10 9 9 9 9 9 9 9 7 6 6 6 6 6 5 4 4 4 2 2 3 4 7 12 9 6 6 7 8 8 9 10 10 10 15
8 9 12 15 14 13 12 12 11 11 9 9 9 9 8 7 7 6 6 6 6 5 3 4 5 4 3 2 2 3 4 5 6 6 6 6 8 7 8 9 10 11 10 14
13 14 13 12 13 14 13 12 10 9 9 9 9 8 7 6 6 6 7 6 5 3 2 5 5 3 3 4 4 3 5 6 6 6 6 11 11 8 8 9 10 10 11 12
15 16 16 14 13 14 13 11 10 10 8 8 8 8 7 6 6 6 6 5 4 5 6 5 4 3 3 4 7 4 6 7 6 6 6 7 8 8 8 10 11 11 12 12
16 17 17 16 14 12 11 10 10 10 8 8 8 7 7 6 6 6 5 4 5 6 5 4 3 2 3 6 8 5 6 6 6 6 7 8 8 9 9 10 12 13 13 13
14 15 15 15 15 12 9 9 10 10 9 8 8 8 8 7 7 6 7 5 5 6 4 3 2 4 7 9 5 6 6 6 6 6 7 7 8 9 10 11 12 12 12 12
13 13 13 13 13 11 10 9 9 9 9 8 8 7 7 6 5 5 5 4 4 6 4 3 6 9 12 7 5 6 6 7 7 7 7 7 7 9 10 11 11 11 11 11
13 13 12 11 12 12 10 8 9 9 9 9 9 8 7 7 6 6 5 5 5 6 3 6 10 11 11 5 5 6 6 7 7 7 8 8 8 9 10 11 11 11 11 12
12 12 11 11 10 8 9 9 9 9 10 9 9 9 8 6 5 4 4 4 6 6 4 7 11 12 7 5 6 6 6 7 9 9 7 7 8 9 10 10 10 11 11 11
10 9 8 8 8 8 7 7 7 7 7 8 7 6 5 5 5 4 4 4 6 7 5 4 6 8 6 6 6 7 7 9 9 8 8 9 10 10 10 10 11 11 11 11
11 9 8 8 7 6 7 7 8 7 6 7 6 4 4 4 4 4 4 4 4 5 5 5 5 5 6 7 7 7 7 7 7 8 8 8 9 9 10 11 10 10 10 11
Wind_Direction
259 162 162 173 186 196 211 223 232 207 160 168 162 156 152 149 147 150 156 157 157 157 154 149 143 136 128 122 116 114 108 100 87 58 40 19 357 336 321 314 312 304 302 301
180 144 166 179 192 200 210 220 237 262 263 152 146 139 143 151 155 160 162 160 156 154 150 148 143 134 126 120 118 116 112 104 93 53 25 360 328 313 305 302 299 302 302 300
139 141 142 204 203 203 211 217 219 230 232 119 125 137 149 154 157 158 157 153 153 150 146 142 135 129 126 121 118 113 107 102 91 47 358 330 316 311 305 304 307 308 305 306
75 146 203 238 187 196 212 221 217 226 219 183 146 108 84 116 137 138 139 140 139 135 130 125 120 118 115 117 116 113 114 116 104 37 335 323 315 310 309 309 309 306 304 304
343 246 250 200 159 182 201 229 215 214 195 123 108 78 41 38 87 106 115 120 120 119 118 116 116 117 117 118 118 121 120 103 70 12 327 316 310 308 309 309 306 301 299 300
293 255 263 77 25 355 101 242 262 195 161 142 126 132 151 91 81 84 91 101 109 111 113 114 117 121 123 125 128 124 109 83 22 333 313 304 303 306 304 304 299 301 301 299
199 248 290 84 357 349 155 221 338 58 137 140 117 116 122 107 94 93 97 102 108 111 113 118 121 122 122 122 119 109 96 56 323 310 306 301 301 298 298 299 300 302 303 304
179 211 246 145 131 49 152 281 32 81 106 103 102 104 106 106 106 107 108 109 112 113 112 112 116 119 119 117 110 105 103 302 299 306 308 308 302 300 301 302 303 304 309 311
186 199 134 80 75 69 106 100 84 92 109 117 114 114 115 113 114 116 117 117 116 117 115 109 108 116 119 115 109 102 32 321 320 319 309 305 304 303 303 301 302 309 313 314
166 160 144 117 108 109 103 100 95 107 113 116 118 120 120 121 121 121 121 121 124 124 123 118 107 99 106 110 106 83 359 336 326 316 310 309 303 299 300 303 305 307 308 309
161 131 127 153 147 118 101 97 96 95 101 113 118 120 123 125 127 129 128 125 127 131 131 131 128 117 111 109 94 47 358 334 321 317 315 309 302 298 304 293 302 312 306 304
198 178 166 168 147 122 114 112 111 108 99 98 110 117 117 119 124 127 127 125 124 125 126 129 129 125 118 104 80 36 343 328 324 321 314 308 308 309 310 313 317 319 321 318
110 123 117 123 124 119 119 117 112 108 108 103 96 102 107 109 111 116 120 124 125 124 124 123 118 115 114 107 85 21 328 316 311 310 307 308 310 312 314 317 318 320 322 323
102 100 104 121 119 113 111 108 103 96 93 94 95 93 98 101 103 109 116 119 117 115 117 118 116 115 112 102 79 346 320 312 309 298 305 309 308 306 308 315 319 319 321 322
82 94 125 115 105 104 108 111 106 102 100 94 92 95 101 106 107 106 106 108 109 111 115 116 116 114 107 93 49 335 318 303 297 299 299 298 299 302 306 309 312 314 315 320
91 90 105 114 118 121 122 117 115 114 110 107 101 97 98 102 103 104 108 116 120 127 130 127 125 109 96 73 12 327 309 308 312 302 293 295 299 305 308 309 310 311 313 317
129 130 131 134 134 134 124 115 118 118 114 110 109 106 103 103 106 111 116 113 109 114 118 121 114 98 83 51 343 316 309 310 311 309 297 298 301 301 303 305 307 308 309 314
136 138 146 145 139 124 108 105 108 110 111 113 113 112 113 118 125 134 133 118 105 100 108 110 97 78 44 342 326 316 306 296 295 294 295 297 304 303 305 305 307 308 311 315
124 127 127 122 118 116 113 111 108 106 107 111 112 111 108 105 110 120 124 123 124 123 112 100 83 46 348 330 338 317 300 295 295 294 297 310 314 305 304 306 308 309 312 316
111 110 108 104 104 110 111 111 108 104 104 108 106 103 100 99 103 111 114 108 94 95 90 74 46 4 1 342 337 306 292 290 296 303 306 304 303 304 307 310 313 315 316 317
113 111 108 106 100 96 101 106 107 104 100 100 104 106 107 104 102 103 102 96 79 70 64 46 20 13 360 332 326 305 297 301 306 305 304 305 306 307 310 313 314 314 314 315
116 113 110 108 104 94 82 88 98 102 97 91 92 99 103 101 96 86 77 86 87 55 36 8 9 353 335 333 318 306 306 308 305 302 301 302 305 308 309 309 309 310 313 314
111 110 109 108 106 100 86 80 86 93 93 92 92 95 97 94 88 95 91 67 62 30 13 348 346 339 336 339 319 313 312 309 305 302 301 301 301 303 305 306 309 311 311 311
105 102 102 105 106 100 91 80 81 85 85 80 75 77 86 89 72 62 76 62 34 18 4 343 344 339 341 339 315 308 304 303 299 295 293 294 297 302 306 308 309 309 308 309
102 101 102 103 99 101 107 106 97 93 90 85 74 64 60 68 83 72 57 39 14 12 358 346 343 341 340 314 307 304 303 298 299 302 303 309 309 308 306 306 307 308 307 306
99 96 90 89 101 116 121 116 109 107 106 99 85 71 68 65 67 59 42 22 5 357 352 332 325 326 316 306 302 301 300 304 309 312 308 308 308 308 307 307 306 305 303 302
95 96 94 89 85 93 100 104 105 102 102 106 99 82 70 61 53 38 23 9 355 342 328 320 315 308 303 301 302 302 304 307 310 310 310 308 306 305 304 302 302 301 300 300
Height
1380 1377 1383 1388 1391 1393 1397 1397 1400 1394 1396 1398 1398 1401 1405 1409 1415 1420 1426 1430 1435 1439 1443 1447 1451 1454 1456 1458 1461 1463 1465 1466 1466 1466 1465 1464 1462 1460 1458 1456 1453 1449 1445 1441
1379 1376 1379 1386 1388 1391 1394 1395 1396 1395 1394 1389 1392 1397 1403 1408 1413 1418 1423 1428 1433 1437 1441 1445 1448 1451 1453 1456 1459 1461 1463 1463 1464 1463 1462 1461 1459 1457 1455 1452 1448 1445 1440 1436
1384 1379 1381 1389 1383 1385 1388 1388 1392 1396 1394 1391 1395 1398 1401 1406 1411 1416 1421 1426 1431 1435 1439 1443 1446 1449 1451 1454 1458 1459 1461 1461 1461 1460 1459 1458 1456 1454 1451 1448 1444 1440 1436 1431
1387 1387 1398 1379 1368 1373 1379 1381 1384 1386 1387 1390 1394 1398 1402 1406 1410 1415 1420 1425 1430 1434 1438 1442 1445 1447 1450 1454 1456 1458 1459 1459 1458 1458 1457 1455 1453 1450 1447 1443 1439 1435 1430 1425
1393 1390 1384 1375 1372 1371 1377 1379 1377 1380 1385 1390 1394 1400 1406 1408 1411 1415 1419 1424 1429 1433 1436 1439 1443 1446 1450 1453 1455 1456 1456 1456 1456 1455 1454 1452 1450 1447 1443 1439 1435 1430 1425 1420
1395 1396 1392 1382 1374 1372 1375 1381 1374 1374 1380 1388 1392 1405 1411 1411 1412 1416 1420 1424 1428 1432 1435 1438 1442 1446 1449 1451 1453 1454 1454 1454 1454 1453 1451 1449 1446 1443 1439 1435 1430 1425 1420 1415
1396 1396 1386 1380 1376 1376 1387 1385 1377 1375 1378 1386 1391 1397 1405 1410 1414 1417 1421 1425 1428 1431 1435 1438 1442 1445 1448 1450 1452 1452 1452 1452 1451 1450 1448 1446 1443 1439 1435 1430 1425 1420 1415 1410
1394 1397 1393 1379 1379 1381 1383 1381 1379 1379 1382 1388 1393 1399 1405 1410 1415 1419 1422 1426 1429 1431 1435 1439 1442 1445 1447 1449 1450 1450 1450 1450 1449 1447 1445 1442 1439 1435 1431 1426 1421 1415 1410 1405
1382 1384 1378 1378 1379 1380 1381 1382 1382 1384 1387 1391 1396 1403 1408 1412 1416 1420 1423 1427 1430 1432 1436 1439 1442 1445 1446 1447 1448 1448 1448 1447 1446 1445 1442 1439 1435 1431 1426 1422 1417 1411 1406 1400
1374 1376 1377 1378 1379 1380 1382 1384 1386 1388 1391 1395 1399 1405 1410 1414 1418 1421 1425 1427 1430 1433 1436 1439 1442 1443 1445 1445 1446 1446 1445 1445 1443 1441 1438 1435 1432 1427 1423 1418 1413 1408 1402 1397
1371 1375 1377 1378 1379 1381 1383 1386 1389 1393 1396 1399 1403 1408 1412 1416 1419 1422 1425 1428 1431 1433 1436 1439 1441 1442 1443 1443 1444 1444 1443 1442 1440 1438 1435 1431 1427 1424 1419 1415 1411 1406 1401 1395
1367 1367 1371 1375 1378 1381 1384 1388 1391 1395 1399 1404 1406 1410 1413 1417 1420 1423 1425 1428 1430 1433 1435 1437 1439 1440 1441 1442 1442 1441 1441 1439 1437 1434 1431 1427 1422 1418 1414 1411 1407 1403 1398 1394
1362 1364 1367 1371 1378 1382 1385 1390 1394 1397 1401 1405 1409 1412 1414 1417 1420 1423 1425 1427 1430 1432 1434 1436 1437 1439 1439 1440 1440 1439 1438 1436 1434 1430 1427 1422 1418 1412 1407 1403 1401 1397 1393 1389
1362 1365 1371 1375 1379 1383 1387 1391 1395 1399 1403 1406 1409 1412 1415 1417 1420 1422 1425 1427 1429 1431 1433 1435 1436 1437 1438 1438 1438 1437 1435 1433 1430 1427 1423 1419 1414 1410 1405 1399 1394 1389 1387 1383
1364 1365 1369 1374 1379 1384 1388 1392 1396 1400 1404 1407 1410 1413 1415 1417 1420 1422 1424 1427 1429 1431 1432 1434 1435 1436 1436 1436 1435 1434 1432 1429 1426 1423 1419 1415 1411 1406 1402 1398 1392 1387 1381 1377
1364 1367 1370 1374 1379 1384 1389 1393 1397 1401 1405 1408 1411 1413 1416 1418 1420 1422 1424 1426 1428 1430 1431 1432 1433 1434 1434 1434 1432 1431 1428 1426 1422 1419 1415 1411 1407 1403 1399 1394 1389 1384 1379 1373
1363 1367 1371 1375 1380 1385 1390 1394 1398 1402 1406 1409 1412 1414 1416 1418 1420 1422 1424 1426 1427 1429 1430 1431 1432 1432 1432 1431 1429 1427 1425 1422 1419 1415 1411 1407 1403 1399 1395 1391 1386 1381 1376 1371
1363 1366 1369 1374 1380 1386 1391 1396 1400 1404 1407 1410 1412 1414 1416 1418 1420 1422 1424 1425 1427 1428 1429 1430 1430 1430 1429 1428 1426 1423 1421 1418 1414 1411 1407 1404 1400 1396 1392 1387 1383 1377 1371 1366
1364 1367 1372 1378 1383 1388 1393 1398 1402 1405 1408 1411 1413 1415 1416 1418 1420 1421 1423 1424 1425 1427 1427 1428 1428 1427 1426 1424 1422 1420 1417 1413 1410 1407 1404 1400 1396 1392 1388 1383 1378 1373 1367 1361
1366 1370 1375 1381 1387 1391 1396 1400 1403 1406 1409 1411 1413 1415 1416 1418 1419 1421 1422 1423 1424 1425 1426 1426 1425 1424 1423 1421 1419 1416 1413 1409 1406 1403 1400 1396 1392 1388 1383 1379 1374 1368 1363 1357
1368 1373 1378 1384 1389 1394 1398 1401 1404 1407 1409 1411 1413 1415 1416 1417 1419 1420 1421 1422 1423 1424 1424 1424 1423 1421 1419 1417 1415 1412 1409 1406 1402 1399 1395 1391 1387 1383 1379 1374 1369 1364 1358 1354
1372 1377 1382 1387 1391 1396 1400 1403 1405 1408 1410 1412 1413 1415 1416 1417 1418 1419 1420 1422 1422 1423 1422 1421 1420 1418 1416 1413 1411 1408 1405 1402 1398 1395 1391 1387 1383 1378 1374 1369 1364 1359 1355 1350
1376 1381 1385 1390 1394 1397 1401 1404 1406 1408 1410 1412 1413 1414 1415 1416 1417 1419 1420 1421 1421 1421 1420 1419 1417 1415 1412 1409 1407 1404 1401 1397 1394 1390 1386 1382 1378 1373 1369 1364 1360 1356 1351 1346
1380 1384 1388 1392 1396 1399 1402 1404 1407 1409 1410 1412 1413 1414 1415 1416 1417 1419 1419 1420 1420 1419 1417 1415 1413 1411 1408 1406 1403 1400 1396 1393 1389 1385 1381 1377 1373 1369 1364 1360 1355 1351 1347 1343
1383 1387 1391 1394 1397 1400 1402 1405 1407 1409 1410 1411 1413 1414 1415 1416 1418 1418 1418 1418 1417 1416 1414 1412 1410 1408 1405 1402 1399 1395 1392 1388 1384 1380 1376 1372 1368 1364 1359 1355 1351 1347 1343 1339
1386 1389 1392 1395 1398 1400 1403 1405 1406 1408 1410 1411 1413 1414 1415 1416 1417 1417 1417 1416 1415 1413 1411 1409 1406 1404 1401 1398 1394 1391 1387 1383 1380 1376 1372 1367 1363 1359 1355 1351 1347 1343 1340 1336
1387 1390 1393 1396 1398 1401 1403 1405 1406 1408 1410 1411 1413 1414 1415 1416 1416 1415 1414 1413 1412 1410 1408 1405 1403 1400 1397 1394 1390 1387 1383 1379 1375 1371 1367 1363 1359 1355 1351 1347 1343 1340 1337 1333